• In Hungary
  • List of Countries
  • For 7 days
  • Water Temperature
  • Satellite Maps
  • Weather Map
  • News
  • Weather Widgets
  • user-avatar
    Login

    Hourly Weather Kabul

    Today, 24 September, Sunday

    Time Temperature Precipitation Wind Pressure Humidity
    00:00 +19°C° 0 mm 1 mps 610 mmHg 29%
    01:00 +18°C° 0 mm 1 mps 610 mmHg 30%
    02:00 +18°C° 0 mm 1 mps 610 mmHg 31%
    03:00 +16°C° 0 mm 1 mps 610 mmHg 32%
    04:00 +16°C° 0 mm 1 mps 609 mmHg 33%
    05:00 +15°C° 0 mm 2 mps 609 mmHg 33%
    06:00 +16°C° 0 mm 2 mps 610 mmHg 31%
    07:00 +19°C° 0 mm 1 mps 611 mmHg 28%
    08:00 +20°C° 0 mm 1 mps 612 mmHg 25%
    09:00 +21°C° 0 mm 1 mps 612 mmHg 22%
    10:00 +23°C° 0 mm 1 mps 612 mmHg 19%
    11:00 +24°C° 0 mm 1 mps 613 mmHg 16%
    12:00 +25°C° 0 mm 2 mps 613 mmHg 15%
    13:00 +26°C° 0 mm 2 mps 613 mmHg 14%
    14:00 +26°C° 0 mm 2 mps 613 mmHg 12%
    15:00 +26°C° 0 mm 2 mps 613 mmHg 12%
    16:00 +26°C° 0 mm 3 mps 612 mmHg 12%
    17:00 +26°C° 0 mm 3 mps 612 mmHg 12%
    18:00 +24°C° 0 mm 3 mps 612 mmHg 15%
    19:00 +23°C° 0 mm 2 mps 612 mmHg 17%
    20:00 +20°C° 0 mm 2 mps 611 mmHg 20%
    21:00 +19°C° 0 mm 2 mps 611 mmHg 21%
    22:00 +19°C° 0 mm 2 mps 611 mmHg 22%
    23:00 +18°C° 0 mm 2 mps 611 mmHg 24%

    Tomorrow, 25 September, Monday

    Time Temperature Precipitation Wind Pressure Humidity
    00:00 +17°C° 0 mm 2 mps 610 mmHg 24%
    01:00 +17°C° 0 mm 2 mps 610 mmHg 25%
    02:00 +16°C° 0 mm 2 mps 609 mmHg 25%
    03:00 +16°C° 0 mm 2 mps 609 mmHg 26%
    04:00 +15°C° 0 mm 2 mps 609 mmHg 26%
    05:00 +15°C° 0 mm 2 mps 609 mmHg 26%
    06:00 +16°C° 0 mm 2 mps 610 mmHg 24%
    07:00 +17°C° 0 mm 3 mps 610 mmHg 23%
    08:00 +18°C° 0 mm 3 mps 611 mmHg 21%
    09:00 +19°C° 0 mm 3 mps 611 mmHg 18%
    10:00 +21°C° 0 mm 3 mps 612 mmHg 14%
    11:00 +22°C° 0 mm 3 mps 612 mmHg 11%
    12:00 +24°C° 0 mm 3 mps 612 mmHg 10%
    13:00 +25°C° 0 mm 3 mps 612 mmHg 9%
    14:00 +26°C° 0 mm 3 mps 612 mmHg 8%
    15:00 +26°C° 0 mm 4 mps 612 mmHg 8%
    16:00 +25°C° 0 mm 4 mps 611 mmHg 8%
    17:00 +25°C° 0 mm 4 mps 611 mmHg 9%
    18:00 +22°C° 0 mm 3 mps 611 mmHg 11%
    19:00 +21°C° 0 mm 3 mps 611 mmHg 13%
    20:00 +19°C° 0 mm 3 mps 611 mmHg 15%
    21:00 +18°C° 0 mm 2 mps 610 mmHg 16%
    22:00 +17°C° 0 mm 2 mps 610 mmHg 17%
    23:00 +17°C° 0 mm 2 mps 610 mmHg 18%

    Day after tomorrow, 26 September, Tuesday

    Time Temperature Precipitation Wind Pressure Humidity
    00:00 +16°C° 0 mm 2 mps 610 mmHg 19%
    01:00 +15°C° 0 mm 2 mps 609 mmHg 20%
    02:00 +15°C° 0 mm 2 mps 609 mmHg 20%
    03:00 +15°C° 0 mm 2 mps 609 mmHg 21%
    04:00 +14°C° 0 mm 2 mps 609 mmHg 21%
    05:00 +14°C° 0 mm 2 mps 609 mmHg 21%
    06:00 +15°C° 0 mm 2 mps 609 mmHg 20%
    07:00 +16°C° 0 mm 2 mps 610 mmHg 18%
    08:00 +17°C° 0 mm 2 mps 611 mmHg 17%
    09:00 +19°C° 0 mm 2 mps 611 mmHg 14%
    10:00 +21°C° 0 mm 2 mps 612 mmHg 11%
    11:00 +23°C° 0 mm 1 mps 612 mmHg 9%
    12:00 +24°C° 0 mm 1 mps 612 mmHg 8%
    13:00 +25°C° 0 mm 2 mps 612 mmHg 7%
    14:00 +26°C° 0 mm 2 mps 612 mmHg 6%
    15:00 +26°C° 0 mm 2 mps 612 mmHg 6%
    16:00 +26°C° 0 mm 2 mps 612 mmHg 7%
    17:00 +26°C° 0 mm 2 mps 612 mmHg 7%
    18:00 +24°C° 0 mm 2 mps 611 mmHg 9%
    19:00 +21°C° 0 mm 2 mps 611 mmHg 11%
    20:00 +20°C° 0 mm 1 mps 611 mmHg 13%
    21:00 +20°C° 0 mm 1 mps 611 mmHg 14%
    22:00 +19°C° 0 mm 1 mps 610 mmHg 14%
    23:00 +17°C° 0 mm 2 mps 610 mmHg 15%

    27 September, Wednesday

    Time Temperature Precipitation Wind Pressure Humidity
    00:00 +17°C° 0 mm 2 mps 610 mmHg 15%
    01:00 +16°C° 0 mm 2 mps 610 mmHg 16%
    02:00 +16°C° 0 mm 2 mps 609 mmHg 16%
    03:00 +16°C° 0 mm 2 mps 609 mmHg 16%
    04:00 +15°C° 0 mm 2 mps 609 mmHg 16%
    05:00 +15°C° 0 mm 2 mps 609 mmHg 17%
    06:00 +16°C° 0 mm 2 mps 610 mmHg 16%
    07:00 +18°C° 0 mm 2 mps 611 mmHg 15%
    08:00 +19°C° 0 mm 2 mps 612 mmHg 14%
    09:00 +21°C° 0 mm 2 mps 612 mmHg 12%
    10:00 +23°C° 0 mm 2 mps 613 mmHg 11%
    11:00 +25°C° 0 mm 2 mps 613 mmHg 10%
    12:00 +26°C° 0 mm 2 mps 613 mmHg 9%
    13:00 +27°C° 0 mm 2 mps 613 mmHg 9%
    14:00 +28°C° 0 mm 3 mps 613 mmHg 8%
    15:00 +27°C° 0 mm 3 mps 613 mmHg 9%
    16:00 +27°C° 0 mm 3 mps 612 mmHg 9%
    17:00 +27°C° 0 mm 3 mps 612 mmHg 9%
    18:00 +25°C° 0 mm 3 mps 612 mmHg 11%
    19:00 +23°C° 0 mm 2 mps 612 mmHg 13%
    20:00 +20°C° 0 mm 2 mps 611 mmHg 15%
    21:00 +19°C° 0 mm 2 mps 611 mmHg 16%
    22:00 +19°C° 0 mm 2 mps 611 mmHg 17%
    23:00 +18°C° 0 mm 2 mps 611 mmHg 18%

    28 September, Thursday

    Time Temperature Precipitation Wind Pressure Humidity
    00:00 +17°C° 0 mm 2 mps 610 mmHg 18%
    01:00 +17°C° 0 mm 2 mps 610 mmHg 18%
    02:00 +16°C° 0 mm 2 mps 609 mmHg 19%
    03:00 +16°C° 0 mm 2 mps 609 mmHg 19%
    04:00 +16°C° 0 mm 2 mps 609 mmHg 19%
    05:00 +15°C° 0 mm 2 mps 609 mmHg 19%
    06:00 +17°C° 0 mm 2 mps 610 mmHg 18%
    07:00 +18°C° 0 mm 2 mps 610 mmHg 16%
    08:00 +19°C° 0 mm 2 mps 611 mmHg 15%
    09:00 +21°C° 0 mm 2 mps 612 mmHg 13%
    10:00 +24°C° 0 mm 2 mps 612 mmHg 11%
    11:00 +26°C° 0 mm 1 mps 612 mmHg 9%
    12:00 +27°C° 0 mm 1 mps 612 mmHg 8%
    13:00 +28°C° 0 mm 2 mps 612 mmHg 7%
    14:00 +29°C° 0 mm 2 mps 612 mmHg 7%
    15:00 +28°C° 0 mm 2 mps 612 mmHg 7%
    16:00 +28°C° 0 mm 2 mps 612 mmHg 7%
    17:00 +28°C° 0 mm 2 mps 612 mmHg 7%
    18:00 +26°C° 0 mm 2 mps 611 mmHg 9%
    19:00 +24°C° 0 mm 2 mps 611 mmHg 11%
    20:00 +21°C° 0 mm 2 mps 611 mmHg 13%
    21:00 +20°C° 0 mm 2 mps 611 mmHg 13%
    22:00 +20°C° 0 mm 2 mps 611 mmHg 14%
    23:00 +19°C° 0 mm 2 mps 611 mmHg 15%

    29 September, Friday

    Time Temperature Precipitation Wind Pressure Humidity
    00:00 +18°C° 0 mm 2 mps 610 mmHg 15%
    01:00 +18°C° 0 mm 2 mps 610 mmHg 16%
    02:00 +17°C° 0 mm 2 mps 610 mmHg 16%
    03:00 +17°C° 0 mm 2 mps 609 mmHg 17%
    04:00 +16°C° 0 mm 2 mps 609 mmHg 17%
    05:00 +16°C° 0 mm 2 mps 609 mmHg 18%
    06:00 +17°C° 0 mm 2 mps 610 mmHg 17%
    07:00 +18°C° 0 mm 2 mps 611 mmHg 16%
    08:00 +20°C° 0 mm 2 mps 612 mmHg 15%
    09:00 +21°C° 0 mm 2 mps 612 mmHg 13%
    10:00 +24°C° 0 mm 2 mps 612 mmHg 12%
    11:00 +25°C° 0 mm 2 mps 613 mmHg 10%
    12:00 +26°C° 0 mm 3 mps 613 mmHg 9%
    13:00 +27°C° 0 mm 3 mps 613 mmHg 9%
    14:00 +28°C° 0 mm 3 mps 612 mmHg 8%
    15:00 +27°C° 0 mm 4 mps 612 mmHg 8%
    16:00 +27°C° 0 mm 4 mps 612 mmHg 8%
    17:00 +27°C° 0 mm 4 mps 612 mmHg 9%
    18:00 +25°C° 0 mm 4 mps 612 mmHg 11%
    19:00 +22°C° 0 mm 3 mps 611 mmHg 13%
    20:00 +20°C° 0 mm 3 mps 611 mmHg 14%
    21:00 +19°C° 0 mm 3 mps 611 mmHg 15%
    22:00 +18°C° 0 mm 2 mps 611 mmHg 17%
    23:00 +18°C° 0 mm 2 mps 611 mmHg 18%
    Show more